When you browse on this site, cookies collect data to enhance your experience and personalize the content and advertising you see.
Visit our Privacy Policy to learn more. By continuing to use the site, you agree to this use of cookies and data.
  • In United Kingdom
  • List of Countries
  • For 7 days
  • Water Temperature
  • Weather Map
  • Weather Widgets
  • user-avatar
    Login

    Hourly Weather Lebedyn

    Today, 19 October, Saturday

    Time Temperature Precipitation Wind Pressure Humidity
    00:00 +14°C° 0 mm 1 mps 746 mmHg 64%
    01:00 +14°C° 0 mm 1 mps 746 mmHg 64%
    02:00 +13°C° 0 mm 1 mps 747 mmHg 64%
    03:00 +13°C° 0 mm 1 mps 747 mmHg 64%
    04:00 +13°C° 0 mm 1 mps 747 mmHg 65%
    05:00 +13°C° 0 mm 1 mps 747 mmHg 65%
    06:00 +13°C° 0 mm 1 mps 747 mmHg 63%
    07:00 +14°C° 0 mm 1 mps 747 mmHg 60%
    08:00 +15°C° 0 mm 1 mps 747 mmHg 56%
    09:00 +18°C° 0 mm 1 mps 748 mmHg 51%
    10:00 +20°C° 0 mm 1 mps 748 mmHg 45%
    11:00 +21°C° 0 mm 2 mps 748 mmHg 40%
    12:00 +21°C° 0 mm 2 mps 748 mmHg 38%
    13:00 +23°C° 0 mm 2 mps 748 mmHg 36%
    14:00 +24°C° 0 mm 2 mps 747 mmHg 34%
    15:00 +21°C° 0 mm 2 mps 747 mmHg 37%
    16:00 +21°C° 0 mm 1 mps 747 mmHg 41%
    17:00 +19°C° 0 mm 1 mps 747 mmHg 45%
    18:00 +19°C° 0 mm 1 mps 747 mmHg 48%
    19:00 +17°C° 0 mm 2 mps 747 mmHg 51%
    20:00 +16°C° 0 mm 2 mps 748 mmHg 54%
    21:00 +16°C° 0 mm 2 mps 748 mmHg 56%
    22:00 +15°C° 0 mm 2 mps 748 mmHg 58%
    23:00 +15°C° 0 mm 2 mps 748 mmHg 60%

    Tomorrow, 20 October, Sunday

    Time Temperature Precipitation Wind Pressure Humidity
    00:00 +14°C° 0 mm 2 mps 748 mmHg 62%
    01:00 +14°C° 0 mm 2 mps 748 mmHg 63%
    02:00 +13°C° 0 mm 1 mps 749 mmHg 64%
    03:00 +13°C° 0 mm 1 mps 748 mmHg 66%
    04:00 +13°C° 0 mm 1 mps 748 mmHg 68%
    05:00 +12°C° 0 mm 1 mps 748 mmHg 70%
    06:00 +13°C° 0 mm 2 mps 749 mmHg 68%
    07:00 +14°C° 0 mm 2 mps 749 mmHg 67%
    08:00 +14°C° 0 mm 2 mps 749 mmHg 65%
    09:00 +16°C° 0 mm 2 mps 749 mmHg 58%
    10:00 +18°C° 0 mm 2 mps 749 mmHg 51%
    11:00 +20°C° 0 mm 2 mps 750 mmHg 44%
    12:00 +21°C° 0 mm 2 mps 749 mmHg 41%
    13:00 +21°C° 0 mm 2 mps 749 mmHg 38%
    14:00 +23°C° 0 mm 2 mps 749 mmHg 36%
    15:00 +21°C° 0 mm 2 mps 749 mmHg 39%
    16:00 +19°C° 0 mm 2 mps 749 mmHg 43%
    17:00 +19°C° 0 mm 1 mps 749 mmHg 47%
    18:00 +17°C° 0 mm 2 mps 749 mmHg 50%
    19:00 +16°C° 0 mm 2 mps 749 mmHg 52%
    20:00 +16°C° 0 mm 2 mps 749 mmHg 55%
    21:00 +15°C° 0 mm 2 mps 749 mmHg 57%
    22:00 +15°C° 0 mm 2 mps 750 mmHg 59%
    23:00 +14°C° 0 mm 2 mps 750 mmHg 60%

    Day after tomorrow, 21 October, Monday

    Time Temperature Precipitation Wind Pressure Humidity
    00:00 +14°C° 0 mm 2 mps 750 mmHg 62%
    01:00 +14°C° 0 mm 2 mps 750 mmHg 64%
    02:00 +13°C° 0 mm 2 mps 750 mmHg 65%
    03:00 +13°C° 0 mm 2 mps 750 mmHg 67%
    04:00 +13°C° 0 mm 1 mps 750 mmHg 69%
    05:00 +12°C° 0 mm 1 mps 750 mmHg 71%
    06:00 +13°C° 0 mm 2 mps 750 mmHg 68%
    07:00 +14°C° 0 mm 2 mps 750 mmHg 66%
    08:00 +14°C° 0 mm 2 mps 750 mmHg 64%
    09:00 +16°C° 0 mm 2 mps 750 mmHg 57%
    10:00 +18°C° 0 mm 2 mps 750 mmHg 50%
    11:00 +20°C° 0 mm 3 mps 750 mmHg 43%
    12:00 +21°C° 0 mm 2 mps 750 mmHg 41%
    13:00 +23°C° 0 mm 2 mps 750 mmHg 38%
    14:00 +24°C° 0 mm 2 mps 750 mmHg 36%
    15:00 +21°C° 0 mm 2 mps 750 mmHg 39%
    16:00 +20°C° 0 mm 2 mps 749 mmHg 43%
    17:00 +19°C° 0 mm 1 mps 749 mmHg 47%
    18:00 +18°C° 0 mm 1 mps 749 mmHg 49%
    19:00 +18°C° 0 mm 1 mps 749 mmHg 51%
    20:00 +16°C° 0 mm 2 mps 750 mmHg 53%
    21:00 +16°C° 0 mm 2 mps 750 mmHg 55%
    22:00 +15°C° 0 mm 2 mps 750 mmHg 57%
    23:00 +15°C° 0 mm 1 mps 750 mmHg 59%

    22 October, Tuesday

    Time Temperature Precipitation Wind Pressure Humidity
    00:00 +14°C° 0 mm 1 mps 750 mmHg 60%
    01:00 +14°C° 0 mm 1 mps 750 mmHg 61%
    02:00 +14°C° 0 mm 1 mps 750 mmHg 63%
    03:00 +13°C° 0 mm 1 mps 750 mmHg 64%
    04:00 +13°C° 0 mm 1 mps 750 mmHg 65%
    05:00 +13°C° 0 mm 1 mps 750 mmHg 66%
    06:00 +13°C° 0 mm 1 mps 750 mmHg 64%
    07:00 +14°C° 0 mm 1 mps 750 mmHg 63%
    08:00 +15°C° 0 mm 1 mps 750 mmHg 61%
    09:00 +18°C° 0 mm 1 mps 751 mmHg 55%
    10:00 +19°C° 0 mm 1 mps 751 mmHg 49%
    11:00 +20°C° 0 mm 2 mps 751 mmHg 43%
    12:00 +21°C° 0 mm 2 mps 751 mmHg 41%
    13:00 +23°C° 0 mm 1 mps 751 mmHg 38%
    14:00 +23°C° 0 mm 1 mps 750 mmHg 36%
    15:00 +22°C° 0 mm 1 mps 750 mmHg 40%
    16:00 +20°C° 0 mm 1 mps 750 mmHg 44%
    17:00 +17°C° 0 mm 0 mps 750 mmHg 47%
    18:00 +16°C° 0 mm 0 mps 750 mmHg 48%
    19:00 +16°C° 0 mm 0 mps 750 mmHg 50%
    20:00 +16°C° 0 mm 1 mps 750 mmHg 51%
    21:00 +16°C° 0 mm 1 mps 750 mmHg 52%
    22:00 +15°C° 0 mm 1 mps 750 mmHg 54%
    23:00 +15°C° 0 mm 1 mps 750 mmHg 55%

    23 October, Wednesday

    Time Temperature Precipitation Wind Pressure Humidity
    00:00 +15°C° 0 mm 1 mps 750 mmHg 57%
    01:00 +14°C° 0 mm 1 mps 750 mmHg 59%
    02:00 +14°C° 0 mm 1 mps 750 mmHg 61%
    03:00 +13°C° 0 mm 1 mps 750 mmHg 62%
    04:00 +13°C° 0 mm 1 mps 750 mmHg 64%
    05:00 +13°C° 0 mm 1 mps 750 mmHg 65%
    06:00 +14°C° 0 mm 1 mps 750 mmHg 63%
    07:00 +14°C° 0 mm 1 mps 750 mmHg 62%
    08:00 +15°C° 0 mm 1 mps 750 mmHg 60%
    09:00 +17°C° 0 mm 2 mps 751 mmHg 53%
    10:00 +19°C° 0 mm 2 mps 751 mmHg 47%
    11:00 +21°C° 0 mm 2 mps 751 mmHg 40%
    12:00 +23°C° 0 mm 2 mps 750 mmHg 37%
    13:00 +23°C° 0 mm 2 mps 750 mmHg 35%
    14:00 +24°C° 0 mm 2 mps 750 mmHg 32%
    15:00 +23°C° 0 mm 2 mps 750 mmHg 36%
    16:00 +20°C° 0 mm 2 mps 749 mmHg 40%
    17:00 +18°C° 0 mm 2 mps 749 mmHg 43%
    18:00 +18°C° 0 mm 2 mps 749 mmHg 45%
    19:00 +17°C° 0 mm 2 mps 749 mmHg 47%
    20:00 +16°C° 0 mm 2 mps 749 mmHg 49%
    21:00 +16°C° 0 mm 2 mps 749 mmHg 50%
    22:00 +15°C° 0 mm 2 mps 749 mmHg 52%
    23:00 +15°C° 0 mm 2 mps 749 mmHg 53%

    24 October, Thursday

    Time Temperature Precipitation Wind Pressure Humidity
    00:00 +14°C° 0 mm 2 mps 749 mmHg 55%
    01:00 +14°C° 0 mm 2 mps 749 mmHg 56%
    02:00 +14°C° 0 mm 2 mps 749 mmHg 57%
    03:00 +13°C° 0 mm 2 mps 749 mmHg 58%
    04:00 +13°C° 0 mm 2 mps 749 mmHg 59%
    05:00 +13°C° 0 mm 2 mps 749 mmHg 61%
    06:00 +13°C° 0 mm 2 mps 749 mmHg 59%
    07:00 +14°C° 0 mm 2 mps 749 mmHg 57%
    08:00 +14°C° 0 mm 2 mps 749 mmHg 56%
    09:00 +16°C° 0 mm 2 mps 749 mmHg 50%
    10:00 +19°C° 0 mm 2 mps 749 mmHg 43%
    11:00 +21°C° 0 mm 3 mps 749 mmHg 37%
    12:00 +21°C° 0 mm 3 mps 749 mmHg 35%
    13:00 +22°C° 0 mm 3 mps 749 mmHg 33%
    14:00 +24°C° 0 mm 3 mps 749 mmHg 30%
    15:00 +21°C° 0 mm 2 mps 748 mmHg 34%
    16:00 +20°C° 0 mm 2 mps 748 mmHg 37%
    17:00 +19°C° 0 mm 1 mps 748 mmHg 41%
    18:00 +17°C° 0 mm 2 mps 748 mmHg 43%
    19:00 +17°C° 0 mm 2 mps 748 mmHg 45%
    20:00 +16°C° 0 mm 2 mps 748 mmHg 47%
    21:00 +16°C° 0 mm 2 mps 748 mmHg 49%
    22:00 +15°C° 0 mm 2 mps 748 mmHg 52%
    23:00 +15°C° 0 mm 2 mps 748 mmHg 54%
    Show more